#timestamp,LO_Frequency,Hit,StdDev 
1515902415.4,286046996.5,N
1515902435.2,286046999.2,N
1515902455.1,286046999.1,N
1515902456.0,286046999.1,N
1515902475.8,286046998.2,N
1515902495.6,286047001.4,N
1515902515.5,286047000.6,N
1515902535.3,286046999.8,N
1515902555.1,286046999.8,N
1515902575.9,286046999.1,N
1515902595.7,286047000.6,N
1515902615.6,286047000.8,N
1515902635.4,286046999.8,N
1515902655.2,286046999.7,N
1515902675.1,286047000.2,N
1515902676.0,286047000.2,N
1515902695.8,286047002.0,N
1515902715.7,286047001.1,N
1515902735.5,286046997.1,N
1515902755.3,286046998.5,N
1515902775.2,286046997.7,N
1515902795.0,286046998.3,N
1515902795.9,286046998.3,N
1515902815.7,286046998.9,N
1515902835.6,286047001.6,N
1515902855.4,286047001.6,N
1515902875.3,286047002.6,N
1515902895.1,286046996.5,N
1515902896.0,286046996.5,N
1515902915.8,286046998.7,N
1515902935.3,286047000.7,N
1515902955.1,286046998.3,N
1515902975.9,286046999.5,N
1515902995.7,286047000.0,N
1515903015.5,286046999.7,N
1515903035.4,286047005.7,Y
1515903055.2,286046999.8,P
1515903075.0,286046998.4,P
1515903075.9,286046998.4,N
1515903095.8,286046998.6,N
1515903115.6,286046999.2,N
1515903135.5,286046998.4,N
1515903155.3,286047000.8,N
1515903175.1,286047001.1,N
1515903195.9,286046998.7,N
1515903215.7,286046996.6,Y
1515903235.6,286046998.8,P
1515903255.4,286046998.3,P
1515903275.2,286046998.8,N
1515903295.1,286047002.6,Y
1515903296.0,286047002.6,P
1515903315.8,286047003.4,N
1515903335.6,286047001.4,N
1515903355.5,286047000.3,N
1515903375.3,286046999.8,N
1515903395.2,286046998.7,N
1515903415.9,286047004.1,N
1515903435.7,286047000.3,N
1515903455.6,286047002.1,N
1515903475.4,286047000.1,N
1515903495.2,286047004.3,N
1515903515.1,286047001.6,N
1515903516.0,286047001.6,N
1515903535.8,286047003.7,N
1515903555.7,286047003.0,N
1515903575.5,286047004.6,N
1515903595.3,286047003.1,N
1515903615.2,286047003.9,N
1515903635.0,286047005.8,Y
1515903635.9,286047005.8,P
1515903655.8,286047004.2,N
1515903675.6,286047000.1,N
1515903695.4,286047000.8,N
1515903715.3,286047002.1,N
1515903735.1,286047001.5,N
1515903755.8,286047003.1,N
1515903775.7,286047000.9,N
1515903795.5,286046995.2,N
1515903815.4,286046997.4,N
1515903835.2,286046998.9,N
1515903855.0,286046998.6,N
1515903855.9,286046998.6,N
1515903875.8,286046998.3,N
1515903895.6,286046998.6,N
1515903915.4,286046999.4,N
1515903935.3,286046995.2,N
1515903955.1,286046997.5,N
1515903975.9,286046995.7,N
1515903995.7,286046995.1,N
1515904015.5,286046998.7,N
1515904035.4,286046998.1,N
1515904055.2,286046999.4,N
1515904075.0,286046999.6,N
1515904076.0,286046999.6,N
1515904095.8,286047000.2,N
1515904115.6,286047001.8,N
1515904135.5,286047002.5,N
1515904155.3,286046998.1,N
1515904175.1,286047000.3,N
1515904195.9,286047004.2,N
1515904215.7,286047002.3,N
1515904235.6,286047005.5,N
1515904255.4,286047002.2,N
1515904275.2,286047003.6,N
1515904295.1,286047004.1,N
1515904296.0,286047004.1,N
1515904315.8,286046999.7,N
1515904335.6,286047000.3,N
1515904355.5,286047002.0,N
1515904375.3,286047005.9,N
1515904395.2,286047001.6,N
1515904415.9,286047001.5,N
1515904435.7,286046996.9,N
1515904455.6,286046999.2,N
1515904475.4,286046997.4,N
1515904495.2,286046999.6,N
1515904515.1,286046999.2,N
1515904516.0,286046999.2,N
1515904535.8,286046995.3,N
1515904555.7,286046998.5,N
1515904575.5,286046998.6,N
1515904625.4,286047002.6,E
1515904635.3,286047001.9,N
1515904655.1,286047000.7,P
1515904675.9,286046998.7,N
1515904695.7,286046998.8,N
1515904715.5,286046999.2,N
1515904735.4,286047001.2,N
1515904755.2,286046998.7,N
1515904775.1,286046996.8,N
1515904776.0,286046996.8,N
1515904795.8,286046997.6,N
1515904815.6,286046997.8,N
1515904835.5,286046995.5,N
1515904855.3,286046996.7,N
1515904875.1,286046998.4,N
1515904895.9,286047000.9,N
1515904915.7,286046997.0,N
1515904935.6,286046996.6,N
1515904955.4,286046998.4,N
1515904975.2,286047000.8,N
1515904995.1,286046998.1,N
1515904996.0,286046998.1,N
1515905015.8,286046997.6,N
1515905035.6,286046995.4,N
1515905055.5,286046993.3,Y
1515905075.3,286046995.9,P
1515905095.2,286046994.2,P
1515905115.9,286046995.8,N
1515905135.7,286046998.1,N
1515905155.6,286046999.9,N
1515905175.4,286047002.6,N
1515905195.2,286047000.7,N
1515905215.1,286047000.5,N
1515905216.0,286047000.5,N
1515905235.8,286046997.4,N
1515905255.7,286046997.4,N
1515905275.5,286047002.7,N
1515905295.3,286047001.1,N
1515905315.2,286046999.4,N
1515905335.0,286046996.6,N
1515905335.9,286046996.6,N
1515905355.8,286046997.1,N
1515905375.6,286046997.5,N
1515905395.4,286046995.7,N
1515905415.3,286046996.0,N
1515905435.1,286046996.2,N
1515905455.8,286046997.9,N
1515905475.7,286046995.5,N
1515905495.5,286046998.9,N
1515905515.4,286046997.7,N
1515905535.2,286046996.8,N
1515905555.0,286047000.9,N
1515905555.9,286047000.9,N
1515905575.8,286046998.9,N
1515905595.6,286046998.6,N
1515905615.4,286046999.2,N
1515905635.3,286046998.5,N
1515905655.1,286046999.1,N
1515905675.9,286046996.9,N
1515905695.7,286047001.0,N
1515905715.5,286047000.8,N
1515905735.4,286046998.0,N
1515905755.2,286046998.4,N
1515905775.1,286046997.8,N
1515905776.0,286046997.8,N
1515905795.8,286046995.8,N
1515905815.6,286046995.1,N
1515905835.5,286046997.0,N
1515905855.3,286046997.1,N
1515905875.1,286046996.3,N
1515905895.9,286046992.2,Y
1515905915.7,286046996.5,P
1515905935.6,286047000.3,N
1515905955.4,286047000.8,N
1515905975.2,286047002.8,N
1515905995.1,286046998.3,N
1515905996.0,286046998.3,N
